Content
SEND FEEDBACK

Daily
Averages
Monthly
Summary
United States of America

MERIZO, GUAM


Home > North America > United States > Guam
Elevation: 10 feet     Latitude: 13 14N     Longitude: 144 39E

WEATHER
 
SELECT A DAY
Number of Records: 341,524;   Date Range: 1/1/95 - 7/7/14
 
SHARE

PRINT THIS DATA

[ ← Previous Day ]
WEATHER ALMANAC - FEBRUARY 12, 2013
[ Next Day → ]
[ °C ]   °F
Weather ElementAverageHighLow
Temperature78 °F82.4 °F (1:23 pm)75.2 °F (6:41 am)
Dewpoint73.9 °F77 °F (12:58 pm)70.3 °F (8:55 pm)
Humidity87.6 %100 % (8:50 am)74 % (2:20 pm)
Barometer29.88 in29.93 in (9:08 am)29.82 in (3:47 pm)
Wind Speed18.9 mph31.1 mph (6:31 am)
Wind Gust33.4 mph (7:09 pm)
Weather ElementAverage
Visibility8.3 mi
Wind DirectionENE (66.9 °)

Weather ElementTotal
Precipitation0.18 in
Cooling Degree Days13.8 (Base 65)
Growing Degree Days28.8 (Base 50)
Averaged from 147 records on February 12, 2013
WEATHER CONDITIONS BREAKOUT
WIND DIRECTION BREAKOUT
WEATHER BY HOUR - FEBRUARY 12, 2013
[ °C ]   °F
Local TimeTemperatureDewpointHumidityBarometerVisibilityWind DirectionWind SpeedGust SpeedPrecipitationEventsConditions
12:11 AM77.0 °F75.2 °F94 %29.90 in10.0 miNE (50°)17.3 mphMostly Cloudy
12:15 AM77.0 °F75.2 °F94 %29.90 in10.0 miENE (60°)17.3 mphMostly Cloudy
12:19 AM77.0 °F75.2 °F94 %29.90 in10.0 miENE (60°)19.6 mph25.3 mphMostly Cloudy
12:21 AM77.0 °F75.2 °F94 %29.90 in10.0 miENE (60°)18.4 mph25.3 mphMostly Cloudy
12:24 AM77.0 °F75.2 °F94 %29.90 in10.0 miENE (60°)17.3 mph25.3 mphMostly Cloudy
12:29 AM77.0 °F73.4 °F89 %29.90 in10.0 miENE (60°)15.0 mph25.3 mphMostly Cloudy
12:31 AM77.0 °F73.4 °F89 %29.90 in10.0 miENE (60°)16.1 mphMostly Cloudy
12:46 AM77.0 °F73.4 °F89 %29.90 in10.0 miENE (60°)20.7 mph26.5 mphOvercast
12:55 AM77.2 °F73.0 °F87 %29.90 in10.0 miENE (60°)19.6 mph0.01 inOvercast
1:18 AM77.0 °F73.4 °F89 %29.90 in10.0 miENE (60°)15.0 mphScattered Clouds
1:25 AM77.0 °F73.4 °F89 %29.90 in10.0 miENE (60°)19.6 mph25.3 mphMostly Cloudy
1:26 AM77.0 °F73.4 °F89 %29.90 in10.0 miENE (60°)20.7 mph25.3 mphScattered Clouds
1:27 AM77.0 °F73.4 °F89 %29.90 in10.0 miNE (50°)21.9 mphMostly Cloudy
1:32 AM77.0 °F73.4 °F89 %29.90 in10.0 miENE (60°)18.4 mphMostly Cloudy
1:45 AM77.0 °F73.4 °F89 %29.89 in10.0 miENE (60°)16.1 mphMostly Cloudy
1:55 AM77.5 °F73.4 °F87 %29.88 in10.0 miENE (60°)17.3 mphMostly Cloudy
2:09 AM77.0 °F71.6 °F83 %29.88 in10.0 miENE (60°)20.7 mphMostly Cloudy
2:55 AM77.5 °F73.6 °F88 %29.87 in10.0 miNE (50°)13.8 mphMostly Cloudy
3:55 AM77.5 °F73.8 °F88 %29.86 in10.0 miNE (40°)17.3 mphMostly Cloudy
3:57 AM77.0 °F73.4 °F89 %29.86 in10.0 miNE (50°)19.6 mphMostly Cloudy
4:02 AM77.0 °F73.4 °F89 %29.86 in10.0 miNE (50°)19.6 mphMostly Cloudy
4:11 AM77.0 °F73.4 °F89 %29.86 in10.0 miNE (40°)18.4 mphMostly Cloudy
4:14 AM77.0 °F73.4 °F89 %29.86 in10.0 miNE (40°)18.4 mphMostly Cloudy
4:15 AM77.0 °F73.4 °F89 %29.86 in10.0 miNE (40°)18.4 mphMostly Cloudy
4:19 AM77.0 °F73.4 °F89 %29.86 in10.0 miNE (40°)19.6 mphMostly Cloudy
4:30 AM77.0 °F73.4 °F89 %29.86 in10.0 miNE (50°)19.6 mphMostly Cloudy
4:55 AM77.9 °F73.2 °F85 %29.86 in10.0 miNE (40°)20.7 mphMostly Cloudy
4:58 AM78.8 °F73.4 °F83 %29.86 in10.0 miNE (40°)20.7 mphOvercast
5:06 AM78.8 °F73.4 °F83 %29.86 in10.0 miNE (40°)19.6 mphMostly Cloudy
5:09 AM78.8 °F73.4 °F83 %29.86 in10.0 miNE (40°)20.7 mphMostly Cloudy
5:16 AM78.8 °F73.4 °F83 %29.86 in10.0 miNE (40°)21.9 mphOvercast
5:41 AM78.8 °F73.4 °F83 %29.87 in10.0 miNE (50°)21.9 mph31.1 mphRainLight Rain
5:42 AM78.8 °F73.4 °F83 %29.87 in10.0 miNE (40°)21.9 mph31.1 mphRainLight Rain
5:46 AM77.0 °F73.4 °F89 %29.87 in10.0 miNE (40°)18.4 mph31.1 mphRainLight Rain
5:50 AM77.0 °F73.4 °F89 %29.87 in10.0 miNE (40°)16.1 mphMostly Cloudy
5:53 AM77.0 °F73.4 °F89 %29.87 in10.0 miNE (40°)18.4 mphMostly Cloudy
5:55 AM77.2 °F74.1 °F90 %29.87 in10.0 miNE (40°)17.3 mph0.00 inMostly Cloudy
5:56 AM77.0 °F73.4 °F89 %29.87 in10.0 miNE (40°)17.3 mphMostly Cloudy
6:03 AM77.0 °F73.4 °F89 %29.87 in10.0 miNE (40°)21.9 mph27.6 mphMostly Cloudy
6:09 AM78.8 °F73.4 °F83 %29.87 in10.0 miNE (40°)21.9 mphMostly Cloudy
6:31 AM78.8 °F73.4 °F83 %29.88 in9.0 miNE (40°)31.1 mphLight Drizzle
6:41 AM75.2 °F73.4 °F94 %29.88 in8.0 miNE (40°)20.7 mph29.9 mphRainLight Rain
6:42 AM75.2 °F73.4 °F94 %29.88 in9.0 miNE (40°)23.0 mph29.9 mphOvercast
6:51 AM77.0 °F75.2 °F94 %29.88 in10.0 miNE (40°)21.9 mph31.1 mphOvercast
6:54 AM77.0 °F75.2 °F94 %29.88 in10.0 miNE (50°)24.2 mph31.1 mphOvercast
6:55 AM76.5 °F74.3 °F93 %29.88 in10.0 miNE (50°)24.2 mph31.1 mph0.00 inOvercast
7:02 AM77.0 °F73.4 °F89 %29.88 in10.0 miNE (40°)26.5 mph31.1 mphOvercast
7:06 AM77.0 °F73.4 °F89 %29.88 in9.0 miENE (70°)27.6 mph31.1 mphOvercast
7:12 AM75.2 °F73.4 °F94 %29.88 in6.0 miENE (70°)20.7 mphOvercast
7:20 AM75.2 °F73.4 °F94 %29.89 in9.0 miENE (70°)15.0 mphOvercast
7:43 AM77.0 °F73.4 °F89 %29.90 in10.0 miENE (70°)17.3 mphMostly Cloudy
7:51 AM77.0 °F75.2 °F94 %29.90 in10.0 miENE (70°)19.6 mphMostly Cloudy
7:55 AM77.7 °F74.3 °F89 %29.90 in10.0 miENE (70°)16.1 mphMostly Cloudy
8:01 AM77.0 °F73.4 °F89 %29.90 in10.0 miEast (80°)17.3 mphMostly Cloudy
8:44 AM75.2 °F73.4 °F94 %29.92 in2.0 miEast (80°)15.0 mph28.8 mphRainLight Rain
8:46 AM75.2 °F73.4 °F94 %29.92 in2.5 miENE (60°)15.0 mphRainLight Rain
8:47 AM75.2 °F73.4 °F94 %29.92 in3.0 miENE (60°)13.8 mphRainLight Rain
8:50 AM75.2 °F75.2 °F100 %29.92 in6.0 miENE (60°)16.1 mphLight Drizzle
8:52 AM77.0 °F75.2 °F94 %29.92 in9.0 miENE (70°)15.0 mphOvercast
8:55 AM76.3 °F75.0 °F96 %29.92 in10.0 miENE (70°)20.7 mph26.5 mph0.07 inOvercast
9:04 AM75.2 °F71.6 °F89 %29.92 in10.0 miENE (70°)20.7 mph27.6 mphOvercast
9:08 AM75.2 °F73.4 °F94 %29.93 in6.0 miEast (80°)18.4 mph27.6 mphRainLight Rain
9:10 AM75.2 °F73.4 °F94 %29.92 in3.0 miEast (90°)17.3 mph23.0 mphRainHeavy Rain
9:11 AM75.2 °F73.4 °F94 %29.92 in3.0 miEast (90°)17.3 mph23.0 mphRainHeavy Rain
9:12 AM75.2 °F71.6 °F89 %29.92 in2.5 miEast (80°)15.0 mph23.0 mphRainHeavy Rain
9:14 AM75.2 °F71.6 °F89 %29.92 in2.5 miEast (80°)13.8 mph23.0 mphRainLight Rain
9:17 AM75.2 °F71.6 °F89 %29.93 in3.0 miEast (80°)12.7 mph23.0 mphRainLight Rain
9:19 AM75.2 °F71.6 °F89 %29.93 in4.0 miEast (80°)13.8 mphOvercast
9:55 AM79.2 °F73.8 °F83 %29.92 in10.0 miENE (70°)17.3 mph0.02 inMostly Cloudy
10:43 AM80.6 °F75.2 °F84 %29.91 in10.0 miEast (80°)21.9 mph27.6 mphOvercast
10:56 AM78.8 °F73.4 °F83 %29.91 in10.0 miEast (90°)13.8 mphOvercast
11:47 AM78.8 °F75.2 °F89 %29.90 in1.0 miEast (90°)20.7 mph31.1 mphRainRain Showers
11:48 AM78.8 °F73.4 °F83 %29.90 in1.0 miEast (90°)18.4 mph31.1 mphRainRain Showers
11:49 AM78.8 °F75.2 °F89 %29.90 in1.0 miEast (90°)18.4 mph31.1 mphRainRain
11:52 AM77.0 °F75.2 °F94 %29.90 in1.5 miEast (90°)17.3 mph31.1 mphRainRain
11:53 AM77.0 °F73.4 °F89 %29.90 in1.2 miEast (90°)16.1 mph31.1 mphRainRain
11:55 AM76.3 °F74.1 °F93 %29.90 in1.2 miEast (80°)15.0 mph31.1 mph0.04 inRainLight Rain
11:56 AM77.0 °F75.2 °F94 %29.90 in1.5 miEast (80°)13.8 mph24.2 mphRainLight Rain
11:58 AM77.0 °F75.2 °F94 %29.90 in2.0 miENE (70°)15.0 mph24.2 mphRainLight Rain
11:59 AM77.0 °F75.2 °F94 %29.90 in2.5 miENE (70°)16.1 mph24.2 mphRainLight Rain
12:00 PM77.0 °F75.2 °F94 %29.89 in3.0 miENE (70°)16.1 mphRainLight Rain
12:02 PM77.0 °F75.2 °F94 %29.89 in5.0 miENE (70°)16.1 mphRainLight Rain
12:04 PM77.0 °F75.2 °F94 %29.89 in5.0 miENE (60°)17.3 mph26.5 mphRainLight Rain
12:06 PM77.0 °F75.2 °F94 %29.89 in3.0 miENE (70°)21.9 mph26.5 mphRainLight Rain
12:07 PM77.0 °F75.2 °F94 %29.89 in2.5 miENE (70°)23.0 mphRainLight Rain
12:08 PM77.0 °F75.2 °F94 %29.89 in2.0 miENE (70°)23.0 mph26.5 mphRainLight Rain
12:09 PM77.0 °F75.2 °F94 %29.89 in1.8 miENE (70°)21.9 mph26.5 mphRainRain
12:13 PM77.0 °F75.2 °F94 %29.89 in1.8 miENE (70°)21.9 mph26.5 mphRainLight Rain
12:15 PM77.0 °F75.2 °F94 %29.89 in2.0 miEast (80°)20.7 mph26.5 mphRainLight Rain
12:16 PM77.0 °F75.2 °F94 %29.89 in2.5 miENE (70°)18.4 mph26.5 mphRainLight Rain
12:17 PM77.0 °F75.2 °F94 %29.89 in3.0 miENE (70°)18.4 mph26.5 mphRainLight Rain
12:20 PM77.0 °F75.2 °F94 %29.89 in8.0 miENE (70°)15.0 mph26.5 mphOvercast
12:23 PM77.0 °F75.2 °F94 %29.89 in10.0 miENE (60°)15.0 mphMostly Cloudy
12:24 PM77.0 °F75.2 °F94 %29.89 in10.0 miENE (60°)13.8 mphMostly Cloudy
12:25 PM77.0 °F75.2 °F94 %29.89 in10.0 miENE (60°)15.0 mphRainLight Rain
12:34 PM77.0 °F75.2 °F94 %29.88 in10.0 miENE (70°)16.1 mphMostly Cloudy
12:37 PM78.8 °F75.2 °F89 %29.88 in10.0 miENE (70°)16.1 mphMostly Cloudy
12:45 PM78.8 °F75.2 °F89 %29.88 in10.0 miEast (80°)15.0 mphMostly Cloudy
12:49 PM78.8 °F75.2 °F89 %29.88 in10.0 miEast (80°)12.7 mphMostly Cloudy
12:55 PM79.0 °F75.9 °F90 %29.87 in10.0 miENE (70°)12.7 mph0.04 inMostly Cloudy
12:58 PM78.8 °F77.0 °F94 %29.87 in10.0 miEast (90°)15.0 mphMostly Cloudy
1:19 PM80.6 °F75.2 °F84 %29.86 in10.0 miEast (90°)18.4 mph24.2 mphMostly Cloudy
1:23 PM82.4 °F75.2 °F79 %29.86 in10.0 miEast (90°)19.6 mph24.2 mphMostly Cloudy
1:26 PM82.4 °F75.2 °F79 %29.86 in10.0 miEast (90°)18.4 mphMostly Cloudy
1:45 PM82.4 °F75.2 °F79 %29.86 in10.0 miEast (90°)18.4 mph24.2 mphScattered Clouds
1:49 PM82.4 °F75.2 °F79 %29.85 in10.0 miEast (90°)17.3 mph24.2 mphMostly Cloudy
1:52 PM82.4 °F75.2 °F79 %29.85 in10.0 miEast (90°)19.6 mph26.5 mphScattered Clouds
1:55 PM82.4 °F75.2 °F79 %29.85 in10.0 miEast (100°)17.3 mph26.5 mphScattered Clouds
2:12 PM82.4 °F75.2 °F79 %29.84 in10.0 miEast (90°)18.4 mphMostly Cloudy
2:20 PM82.4 °F73.4 °F74 %29.84 in10.0 miEast (80°)19.6 mph25.3 mphMostly Cloudy
2:36 PM82.4 °F75.2 °F79 %29.84 in10.0 miENE (70°)21.9 mphMostly Cloudy
2:45 PM80.6 °F75.2 °F84 %29.83 in10.0 miENE (70°)18.4 mphScattered Clouds
2:55 PM80.2 °F74.3 °F82 %29.83 in10.0 miENE (70°)15.0 mphScattered Clouds
3:00 PM80.6 °F75.2 °F84 %29.83 in10.0 miENE (70°)16.1 mphMostly Cloudy
3:06 PM80.6 °F75.2 °F84 %29.83 in10.0 miEast (90°)15.0 mphScattered Clouds
3:47 PM80.6 °F75.2 °F84 %29.82 in10.0 miENE (70°)19.6 mph24.2 mphMostly Cloudy
3:48 PM80.6 °F75.2 °F84 %29.82 in10.0 miENE (70°)19.6 mph25.3 mphMostly Cloudy
3:55 PM81.0 °F74.7 °F81 %29.82 in10.0 miENE (70°)20.7 mph25.3 mphMostly Cloudy
4:17 PM80.6 °F73.4 °F79 %29.82 in9.0 miENE (70°)24.2 mph31.1 mphLight Drizzle
4:24 PM78.8 °F73.4 °F83 %29.82 in9.0 miENE (70°)19.6 mph31.1 mphLight Drizzle
4:26 PM78.8 °F73.4 °F83 %29.82 in9.0 miENE (70°)20.7 mph26.5 mphMostly Cloudy
4:55 PM79.9 °F74.7 °F84 %29.83 in10.0 miENE (70°)18.4 mph0.00 inPartly Cloudy
5:05 PM78.8 °F75.2 °F89 %29.83 in10.0 miENE (70°)17.3 mph24.2 mphMostly Cloudy
5:17 PM78.8 °F75.2 °F89 %29.83 in10.0 miENE (70°)20.7 mphMostly Cloudy
5:26 PM78.8 °F73.4 °F83 %29.83 in10.0 miENE (70°)24.2 mph31.1 mphOvercast
5:28 PM78.8 °F73.4 °F83 %29.83 in10.0 miEast (90°)19.6 mph31.1 mphOvercast
5:40 PM78.8 °F71.6 °F78 %29.83 in10.0 miEast (80°)18.4 mph28.8 mphOvercast
5:55 PM79.0 °F73.0 °F82 %29.84 in10.0 miEast (80°)23.0 mph32.2 mphMostly Cloudy
6:36 PM78.8 °F73.4 °F83 %29.85 in10.0 miEast (80°)21.9 mph29.9 mphMostly Cloudy
6:38 PM78.8 °F73.4 °F83 %29.85 in10.0 miEast (80°)23.0 mph29.9 mphScattered Clouds
6:52 PM78.8 °F73.4 °F83 %29.86 in10.0 miENE (70°)20.7 mph26.5 mphMostly Cloudy
6:54 PM78.8 °F73.4 °F83 %29.86 in10.0 miENE (70°)20.7 mph26.5 mphMostly Cloudy
6:55 PM79.0 °F73.2 °F82 %29.86 in10.0 miENE (70°)20.7 mph26.5 mphMostly Cloudy
7:09 PM78.8 °F73.4 °F83 %29.86 in10.0 miEast (80°)21.9 mph33.4 mphMostly Cloudy
7:11 PM78.8 °F73.4 °F83 %29.86 in10.0 miENE (70°)21.9 mph28.8 mphScattered Clouds
7:16 PM78.8 °F73.4 °F83 %29.86 in10.0 miENE (70°)18.4 mph28.8 mphMostly Cloudy
7:55 PM78.6 °F71.4 °F78 %29.88 in10.0 miENE (70°)24.2 mph28.8 mphMostly Cloudy
7:58 PM78.8 °F71.6 °F78 %29.88 in10.0 miEast (80°)24.2 mphScattered Clouds
8:55 PM78.4 °F70.3 °F76 %29.89 in10.0 miENE (70°)25.3 mph28.8 mphClear
9:55 PM78.4 °F71.6 °F79 %29.89 in10.0 miEast (80°)18.4 mph27.6 mphPartly Cloudy
10:52 PM78.8 °F73.4 °F83 %29.89 in10.0 miEast (80°)18.4 mph27.6 mphMostly Cloudy
10:54 PM78.8 °F73.4 °F83 %29.89 in10.0 miENE (70°)20.7 mph27.6 mphScattered Clouds
10:55 PM78.6 °F73.0 °F83 %29.89 in10.0 miENE (70°)19.6 mph27.6 mphScattered Clouds
11:10 PM78.8 °F71.6 °F78 %29.89 in10.0 miEast (90°)18.4 mph24.2 mphMostly Cloudy
11:12 PM78.8 °F71.6 °F78 %29.89 in10.0 miEast (80°)20.7 mphScattered Clouds
11:47 PM78.8 °F71.6 °F78 %29.89 in10.0 miENE (70°)21.9 mph29.9 mphMostly Cloudy
11:55 PM78.6 °F72.3 °F81 %29.89 in10.0 miENE (70°)23.0 mph28.8 mphMostly Cloudy
Hourly data recorded from PGUA, located miles away from Merizo, Guam







STORIES FROM OUR PARTNERS